Frankfort, MI

11:48 PM EST on February 25, 2017 (GMT -0500)
Frankfort

Weather History for KFKS - February, 2013

Change the Weather History Date:

Wednesday, February 27, 2013

  Actual Average (KMBL) Record (KMBL)
Temperature  
Mean Temperature 32 °F -  
Max Temperature 34 °F 36 °F 48 °F (1998)
Min Temperature 31 °F 18 °F -9 °F (2015)
Degree Days  
Heating Degree Days 32    
Moisture  
Dew Point 30 °F    
Average Humidity 88    
Maximum Humidity 93    
Minimum Humidity 81    
Precipitation  
Precipitation 0.00 in - - ()
Sea Level Pressure  
Sea Level Pressure 29.63 in    
Wind  
Wind Speed 7 mph (NNE)    
Max Wind Speed 10 mph    
Max Gust Speed 17 mph    
Visibility 6 miles    
Events Snow    
Averages and records for this station are not official NWS values.
T = Trace of Precipitation, MM = Missing Value Source: NWS Daily Summary

Daily Weather History Graph

Daily Weather History Graph

Search for Another Location

Airport or City:

Trip Planner

Search our weather history database for the weather conditions in past years. The results will help you decide how hot, cold, wet, or windy it might be!

Date:

Astronomy

Feb. 27, 2013 Rise Set
Actual Time 7:25 AM EST 6:30 PM EST
Civil Twilight 6:55 AM EST 6:59 PM EST
Nautical Twilight 6:22 AM EST 7:33 PM EST
Astronomical Twilight 5:48 AM EST 8:07 PM EST
Moon 8:59 PM EST (2/27) 7:53 AM EST (2/27)
Length of Visible Light 12h 03m
Length of Day
11h 05m
Waning Gibbous, 96% of the Moon is Illuminated
Feb 27
Waning Gibbous
Mar 4
Last Quarter
Mar 11
New
Mar 19
First Quarter
Mar 27
Full

Hourly Weather History & Observations

Time (EST) Temp. Windchill Dew Point Humidity Pressure Visibility Wind Dir Wind Speed Gust Speed Precip Events Conditions
12:12 AM 31.5 °F 24.9 °F 27.1 °F 84% 29.68 in 7.0 mi NNE 6.9 mph - N/A Snow Light Snow
12:32 AM 31.5 °F 22.9 °F 27.1 °F 84% 29.67 in 5.0 mi NE 10.4 mph 17.3 mph N/A Snow Light Snow
12:52 AM 31.6 °F 24.4 °F 27.1 °F 83% 29.67 in 3.0 mi NE 8.1 mph 16.1 mph N/A Snow Light Snow
1:13 AM 31.1 °F 23.1 °F 28.0 °F 88% 29.66 in 1.8 mi NE 9.2 mph 16.1 mph N/A Snow Light Snow
1:33 AM 31.1 °F 23.7 °F 28.4 °F 90% 29.65 in 1.8 mi NE 8.1 mph - N/A Snow Light Snow
1:53 AM 31.1 °F 25.4 °F 28.4 °F 90% 29.65 in 1.8 mi NNE 5.8 mph - N/A Snow Light Snow
2:13 AM 31.1 °F 23.7 °F 28.4 °F 90% 29.64 in 2.0 mi NE 8.1 mph - N/A Snow Light Snow
2:33 AM 31.1 °F 25.4 °F 28.4 °F 90% 29.63 in 2.5 mi NNE 5.8 mph - N/A Snow Light Snow
2:53 AM 31.1 °F 23.7 °F 28.4 °F 90% 29.63 in 4.0 mi NE 8.1 mph - N/A Snow Light Snow
3:13 AM 31.1 °F 25.4 °F 28.4 °F 90% 29.61 in 3.0 mi NNE 5.8 mph - N/A Snow Light Snow
3:33 AM 31.1 °F 27.7 °F 28.8 °F 91% 29.61 in 1.5 mi NNE 3.5 mph - N/A Snow Light Snow
3:54 AM 31.1 °F 26.4 °F 29.1 °F 92% 29.60 in 1.8 mi NNE 4.6 mph - N/A Snow Light Snow
4:14 AM 31.5 °F 26.8 °F 29.3 °F 92% 29.60 in 1.5 mi NNE 4.6 mph - N/A Snow Light Snow
4:34 AM 31.5 °F 25.8 °F 29.3 °F 92% 29.60 in 1.5 mi NNE 5.8 mph - N/A Snow Light Snow
4:54 AM 31.6 °F 25.1 °F 29.3 °F 91% 29.60 in 1.8 mi NNE 6.9 mph - N/A Snow Light Snow
5:14 AM 31.8 °F 27.3 °F 29.7 °F 92% 29.60 in 1.8 mi NNE 4.6 mph - N/A Snow Light Snow
5:34 AM 31.8 °F 24.6 °F 29.7 °F 92% 29.60 in 2.0 mi NNE 8.1 mph - N/A Snow Light Snow
6:14 AM 32.0 °F 26.4 °F 29.8 °F 92% 29.60 in 1.8 mi NNE 5.8 mph - N/A Snow Light Snow
6:35 AM 32.0 °F 26.4 °F 30.0 °F 92% 29.61 in 1.5 mi North 5.8 mph - N/A Snow Light Snow
6:55 AM 32.0 °F 24.8 °F 30.2 °F 93% 29.61 in 1.8 mi North 8.1 mph - N/A Snow Light Snow
7:35 AM 32.0 °F 26.4 °F 29.8 °F 92% 29.61 in 2.0 mi NNE 5.8 mph - N/A Snow Light Snow
7:55 AM 31.8 °F 28.5 °F 29.7 °F 92% 29.61 in 1.0 mi NNE 3.5 mph - N/A Snow Light Snow
8:15 AM 32.0 °F 27.5 °F 29.8 °F 92% 29.62 in 1.0 mi NNE 4.6 mph - N/A Snow Light Snow
8:35 AM 32.0 °F 28.7 °F 29.7 °F 91% 29.62 in 1.8 mi NNE 3.5 mph - N/A Snow Light Snow
8:55 AM 32.0 °F 27.5 °F 29.7 °F 91% 29.62 in 7.0 mi NE 4.6 mph - N/A   Overcast
9:15 AM 32.2 °F 26.7 °F 29.8 °F 91% 29.61 in 10.0 mi NNE 5.8 mph - N/A   Overcast
9:56 AM 33.3 °F 27.1 °F 29.8 °F 87% 29.61 in 10.0 mi NE 6.9 mph 17.3 mph N/A   Overcast
10:16 AM 33.3 °F 27.1 °F 29.8 °F 87% 29.61 in 10.0 mi NE 6.9 mph - N/A   Overcast
10:36 AM 33.3 °F 26.4 °F 29.8 °F 87% 29.61 in 10.0 mi NE 8.1 mph - N/A   Overcast
10:56 AM 33.8 °F 26.4 °F 29.8 °F 85% 29.60 in 10.0 mi NNE 9.2 mph 16.1 mph N/A   Overcast
11:11 AM 33.8 °F 27.0 °F 29.8 °F 85% 29.60 in 10.0 mi NE 8.1 mph 16.1 mph N/A   Overcast
11:31 AM 33.8 °F 26.4 °F 29.7 °F 85% 29.61 in 10.0 mi NE 9.2 mph 17.3 mph N/A   Overcast
11:51 AM 33.8 °F 28.6 °F 29.3 °F 84% 29.61 in 10.0 mi NE 5.8 mph - N/A   Overcast
12:11 PM 33.8 °F 28.6 °F 29.5 °F 84% 29.61 in 10.0 mi NE 5.8 mph - N/A   Overcast
12:31 PM 34.2 °F 27.5 °F 29.7 °F 84% 29.61 in 10.0 mi NE 8.1 mph - N/A   Overcast
12:52 PM 34.3 °F 26.5 °F 29.7 °F 83% 29.61 in 10.0 mi NE 10.4 mph 16.1 mph N/A   Overcast
1:12 PM 34.3 °F 27.7 °F 29.7 °F 83% 29.61 in 10.0 mi NE 8.1 mph - N/A   Overcast
1:32 PM 34.5 °F 27.9 °F 29.5 °F 82% 29.61 in 10.0 mi NNE 8.1 mph - N/A   Overcast
1:52 PM 34.7 °F 26.9 °F 29.5 °F 81% 29.61 in 10.0 mi NE 10.4 mph - N/A   Overcast
2:12 PM 34.5 °F 27.9 °F 29.3 °F 81% 29.60 in 10.0 mi NNE 8.1 mph - N/A   Overcast
2:32 PM 34.5 °F 30.4 °F 29.3 °F 81% 29.60 in 10.0 mi NE 4.6 mph - N/A   Overcast
2:52 PM 34.7 °F 28.8 °F 29.3 °F 81% 29.61 in 10.0 mi NNE 6.9 mph - N/A   Overcast
3:33 PM 34.2 °F 30.0 °F 29.3 °F 82% 29.61 in 10.0 mi North 4.6 mph - N/A   Overcast
3:53 PM 34.0 °F 28.0 °F 29.5 °F 84% 29.61 in 10.0 mi North 6.9 mph - N/A   Overcast
4:13 PM 34.0 °F 28.8 °F 29.7 °F 84% 29.62 in 10.0 mi North 5.8 mph - N/A   Overcast
4:33 PM 33.8 °F 28.6 °F 29.8 °F 85% 29.62 in 10.0 mi North 5.8 mph - N/A   Overcast
4:53 PM 33.6 °F 26.8 °F 30.0 °F 87% 29.63 in 10.0 mi North 8.1 mph - N/A   Overcast
5:13 PM 33.4 °F 26.6 °F 30.0 °F 87% 29.63 in 10.0 mi North 8.1 mph - N/A   Overcast
5:33 PM 33.3 °F 26.4 °F 30.2 °F 89% 29.64 in 5.0 mi NNE 8.1 mph - N/A Snow Light Snow
5:53 PM 33.3 °F 26.4 °F 30.2 °F 89% 29.64 in 5.0 mi NNE 8.1 mph - N/A   Overcast
6:14 PM 33.1 °F 26.1 °F 30.2 °F 89% 29.65 in 5.0 mi North 8.1 mph 16.1 mph N/A   Overcast
6:34 PM 33.1 °F 27.7 °F 30.2 °F 89% 29.65 in 7.0 mi NNE 5.8 mph - N/A   Overcast
6:54 PM 33.1 °F 26.1 °F 30.2 °F 89% 29.66 in 7.0 mi NNE 8.1 mph - N/A   Overcast
7:14 PM 33.1 °F 26.9 °F 30.2 °F 89% 29.67 in 5.0 mi NNE 6.9 mph - N/A Snow Light Snow
7:34 PM 33.1 °F 25.5 °F 30.2 °F 89% 29.68 in 7.0 mi NE 9.2 mph - N/A Snow Light Snow
7:54 PM 33.3 °F 26.4 °F 30.2 °F 89% 29.68 in 10.0 mi NNE 8.1 mph - N/A   Overcast
8:14 PM 33.3 °F 27.9 °F 30.0 °F 88% 29.68 in 10.0 mi NNE 5.8 mph - N/A   Overcast
8:34 PM 33.3 °F 27.9 °F 30.2 °F 89% 29.68 in 7.0 mi NNE 5.8 mph - N/A   Overcast
9:15 PM 33.3 °F 30.2 °F 30.0 °F 88% 29.69 in 10.0 mi NNE 3.5 mph - N/A   Overcast
9:35 PM 33.4 °F 28.1 °F 30.2 °F 88% 29.69 in 10.0 mi NNE 5.8 mph - N/A   Overcast
9:55 PM 33.3 °F 28.9 °F 30.2 °F 89% 29.70 in 7.0 mi North 4.6 mph - N/A Snow Light Snow
10:15 PM 33.4 °F 26.6 °F 30.9 °F 90% 29.70 in 7.0 mi North 8.1 mph - N/A Snow Light Snow
10:35 PM 33.1 °F 28.7 °F 30.9 °F 92% 29.70 in 5.0 mi North 4.6 mph - N/A Snow Light Snow
10:55 PM 33.3 °F 28.9 °F 31.1 °F 92% 29.69 in 7.0 mi North 4.6 mph - N/A Snow Light Snow
11:15 PM 33.1 °F 28.7 °F 30.9 °F 92% 29.69 in 10.0 mi North 4.6 mph - N/A   Overcast
11:35 PM 33.1 °F 26.1 °F 31.1 °F 92% 29.69 in 4.0 mi North 8.1 mph - N/A Snow Light Snow
11:56 PM 32.9 °F 26.7 °F 31.1 °F 93% 29.69 in 5.0 mi North 6.9 mph - N/A Snow Light Snow